Location: Del Amo
(33.8464°N, 118.2104°W)
Time: 17:10:28
(UTC+00:00)

Vanguard 2 Rocket - Pass Details

Date: 18 September 2024
Orbit: 553 x 3298 km, 32.9° (Epoch: 11 October)

Event Time Altitude Azimuth Distance (km) Brightness Sun altitude
Rises 16:43:36 0° 276° (W) 6,894 10.9 36.4°
Reaches altitude 10° 16:50:21 10° 261° (W) 6,133 10.8 37.6°
Maximum altitude 17:01:43 19° 226° (SW) 5,515 10.9 39.7°
Drops below altitude 10° 17:12:54 10° 189° (S) 5,921 11.4 41.6°
Sets 17:19:24 0° 173° (S) 6,568 11.7 42.8°
